sat.trackr.live / text

‹ back to catalog

HULIANWANG DIGUI-46

NORAD 65049 · 2025-162G

PAYLOAD ACTIVE UNKNOWN

§ Identity

Operator
Country
PRC
Launch date
2025-07-30
Launch site
WSC
Launch vehicle
Mass (kg)
RCS (m²)

External: N2YO · Heavens-Above · Gunter

§ Orbital elements

Epoch: 2026-09-21T13:42:25.427232Z

Period
108.33 min
Inclination
50.0058°
Eccentricity
0.0000763
Mean motion
13.29331116 rev/d
Perigee alt
1,148.7 km
Apogee alt
1,149.9 km
Semi-major
7,527.4 km
B*
1.0104e-4
RAAN
280.0068°
Arg perigee
290.5557°
Mean anomaly
69.5234°
Rev number
5,618

§ Raw data

HULIANWANG DIGUI-461 65049U 25162G   26264.57112763 -.00000077  00000+0  10104-3 0  99952 65049  50.0058 280.0068 0000763 290.5557  69.5234 13.29331116 56186

JSON: /api/v1/satellites/65049 · /tle

For live sub-satellite position, see the globe view (requires WebGL).

§ Visibility from observer

Set your observer location to see the next 7 days of passes ≥ 10°. The values pass through the URL so the page stays shareable.

No JS? Fill the form by hand. The geolocation button needs JavaScript.